Location: Unspecified
(0.0000°N, 0.0000°E)
Time: 06:51:25
(UTC+02:00)

PROBA 2 - Visible Passes

Search period start: 24 July 2017 00:00
Search period end: 03 August 2017 00:00
Orbit: 707 x 725 km, 98.3° (Epoch: 23 July)

Date Brightness Start Highest point End Pass type
(mag) Time Alt. Az. Time Alt. Az. Time Alt. Az.
24 Jul ? 20:40:24 10° N 20:44:58 46° WNW 20:49:33 10° SSW visible
25 Jul ? 07:27:20 10° ESE 07:30:39 18° ENE 07:33:57 10° NE visible
25 Jul ? 21:30:17 10° WNW 21:31:43 11° WNW 21:33:09 10° W visible
26 Jul ? 20:36:07 10° N 20:40:46 53° WNW 20:45:26 10° SSW visible
27 Jul ? 07:23:28 10° ESE 07:26:27 16° ENE 07:29:25 10° NE visible
27 Jul ? 21:25:23 10° NW 21:27:31 13° WNW 21:29:40 10° WSW visible
28 Jul ? 20:31:51 10° N 20:36:33 61° WNW 20:41:17 10° SSW visible
29 Jul ? 07:19:41 10° ESE 07:22:15 14° ENE 07:24:48 10° NE visible
29 Jul ? 21:20:41 10° NW 21:23:19 15° WNW 21:25:57 10° WSW visible
30 Jul ? 20:27:37 10° N 20:32:21 70° WNW 20:37:07 10° SSW visible
31 Jul ? 07:16:02 10° ESE 07:18:03 12° ENE 07:20:05 10° NE visible
31 Jul ? 21:16:06 10° NW 21:19:07 17° WNW 21:22:08 10° WSW visible
01 Aug ? 20:23:23 10° N 20:28:09 79° WNW 20:32:56 10° SSW visible
02 Aug ? 07:12:39 10° E 07:13:51 11° ENE 07:15:04 10° ENE visible
02 Aug ? 21:11:35 10° NNW 21:14:54 19° WNW 21:18:16 10° WSW visible
